When you browse on this site, cookies collect data to enhance your experience and personalize the content and advertising you see.
Visit our Privacy Policy to learn more. By continuing to use the site, you agree to this use of cookies and data.
  • In Hungary
  • List of Countries
  • For 7 days
  • Water Temperature
  • Weather Map
  • News
  • Weather Widgets
  • user-avatar
    Login

    Hourly Weather Dabrowno

    Today, 23 September, Monday

    Time Temperature Precipitation Wind Pressure Humidity
    00:00 +11°C° 0 mm 3 mps 753 mmHg 96%
    01:00 +11°C° 0 mm 4 mps 754 mmHg 96%
    02:00 +11°C° 0 mm 4 mps 754 mmHg 93%
    03:00 +10°C° 0 mm 5 mps 754 mmHg 91%
    04:00 +12°C° 0 mm 5 mps 754 mmHg 88%
    05:00 +10°C° 0 mm 5 mps 754 mmHg 87%
    06:00 +10°C° 0 mm 5 mps 754 mmHg 85%
    07:00 +9°C° 0 mm 5 mps 754 mmHg 83%
    08:00 +10°C° 0 mm 5 mps 755 mmHg 78%
    09:00 +12°C° 0 mm 5 mps 755 mmHg 73%
    10:00 +13°C° 0 mm 5 mps 755 mmHg 69%
    11:00 +14°C° 0 mm 5 mps 755 mmHg 66%
    12:00 +15°C° 0 mm 5 mps 755 mmHg 63%
    13:00 +16°C° 0 mm 5 mps 755 mmHg 61%
    14:00 +17°C° 0 mm 4 mps 755 mmHg 61%
    15:00 +17°C° 0 mm 4 mps 755 mmHg 61%
    16:00 +17°C° 0 mm 4 mps 754 mmHg 61%
    17:00 +14°C° 0 mm 4 mps 754 mmHg 66%
    18:00 +13°C° 0 mm 4 mps 754 mmHg 70%
    19:00 +11°C° 0 mm 4 mps 754 mmHg 74%
    20:00 +11°C° 0 mm 4 mps 754 mmHg 75%
    21:00 +10°C° 0 mm 3 mps 755 mmHg 76%
    22:00 +10°C° 0 mm 3 mps 755 mmHg 76%
    23:00 +9°C° 0 mm 3 mps 754 mmHg 78%

    Tomorrow, 24 September, Tuesday

    Time Temperature Precipitation Wind Pressure Humidity
    00:00 +9°C° 0 mm 3 mps 754 mmHg 79%
    01:00 +9°C° 0 mm 3 mps 754 mmHg 81%
    02:00 +8°C° 0 mm 3 mps 754 mmHg 83%
    03:00 +8°C° 0 mm 3 mps 754 mmHg 85%
    04:00 +8°C° 0 mm 3 mps 753 mmHg 87%
    05:00 +8°C° 0 mm 3 mps 753 mmHg 86%
    06:00 +9°C° 0 mm 3 mps 753 mmHg 84%
    07:00 +9°C° 0 mm 3 mps 753 mmHg 83%
    08:00 +11°C° 0 mm 3 mps 753 mmHg 76%
    09:00 +13°C° 0 mm 3 mps 753 mmHg 69%
    10:00 +16°C° 0 mm 3 mps 753 mmHg 63%
    11:00 +17°C° 0 mm 3 mps 752 mmHg 59%
    12:00 +18°C° 0 mm 3 mps 752 mmHg 56%
    13:00 +20°C° 0 mm 3 mps 752 mmHg 53%
    14:00 +19°C° 0 mm 3 mps 751 mmHg 54%
    15:00 +19°C° 0 mm 3 mps 751 mmHg 54%
    16:00 +19°C° 0 mm 3 mps 750 mmHg 55%
    17:00 +18°C° 0 mm 3 mps 750 mmHg 60%
    18:00 +16°C° 0 mm 3 mps 750 mmHg 64%
    19:00 +14°C° 0 mm 3 mps 750 mmHg 69%
    20:00 +14°C° 0 mm 3 mps 750 mmHg 68%
    21:00 +14°C° 0 mm 3 mps 750 mmHg 67%
    22:00 +14°C° 0 mm 4 mps 750 mmHg 66%
    23:00 +14°C° 0 mm 4 mps 749 mmHg 67%

    Day after tomorrow, 25 September, Wednesday

    Time Temperature Precipitation Wind Pressure Humidity
    00:00 +14°C° 0 mm 4 mps 749 mmHg 67%
    01:00 +14°C° 0 mm 4 mps 748 mmHg 67%
    02:00 +13°C° 0.1 mm 3 mps 748 mmHg 69%
    03:00 +13°C° 0.1 mm 3 mps 748 mmHg 71%
    04:00 +13°C° 0.1 mm 3 mps 747 mmHg 74%
    05:00 +13°C° 0.1 mm 3 mps 747 mmHg 74%
    06:00 +13°C° 0.1 mm 3 mps 747 mmHg 74%
    07:00 +13°C° 0.1 mm 3 mps 746 mmHg 74%
    08:00 +13°C° 0.1 mm 3 mps 747 mmHg 77%
    09:00 +13°C° 0.1 mm 4 mps 747 mmHg 80%
    10:00 +13°C° 0.1 mm 4 mps 747 mmHg 83%
    11:00 +13°C° 0.2 mm 4 mps 747 mmHg 83%
    12:00 +13°C° 0.2 mm 4 mps 746 mmHg 82%
    13:00 +13°C° 0.2 mm 3 mps 746 mmHg 82%
    14:00 +13°C° 0 mm 3 mps 746 mmHg 82%
    15:00 +14°C° 0 mm 3 mps 746 mmHg 81%
    16:00 +14°C° 0 mm 3 mps 746 mmHg 81%
    17:00 +14°C° 0 mm 3 mps 746 mmHg 84%
    18:00 +13°C° 0 mm 3 mps 746 mmHg 86%
    19:00 +14°C° 0 mm 2 mps 746 mmHg 89%
    20:00 +14°C° 0 mm 2 mps 746 mmHg 89%
    21:00 +14°C° 0 mm 2 mps 746 mmHg 90%
    22:00 +14°C° 0 mm 2 mps 747 mmHg 90%
    23:00 +14°C° 0.2 mm 2 mps 747 mmHg 91%

    26 September, Thursday

    Time Temperature Precipitation Wind Pressure Humidity
    00:00 +14°C° 0.2 mm 1 mps 747 mmHg 93%
    01:00 +13°C° 0.2 mm 1 mps 747 mmHg 94%
    02:00 +13°C° 0.2 mm 1 mps 747 mmHg 94%
    03:00 +13°C° 0.2 mm 1 mps 747 mmHg 95%
    04:00 +13°C° 0.2 mm 1 mps 747 mmHg 95%
    05:00 +13°C° 0.2 mm 1 mps 747 mmHg 95%
    06:00 +13°C° 0.2 mm 1 mps 748 mmHg 95%
    07:00 +13°C° 0.2 mm 1 mps 748 mmHg 95%
    08:00 +14°C° 0.2 mm 1 mps 748 mmHg 94%
    09:00 +14°C° 0.2 mm 1 mps 749 mmHg 93%
    10:00 +13°C° 0.2 mm 0 mps 749 mmHg 92%
    11:00 +13°C° 0.1 mm 0 mps 749 mmHg 91%
    12:00 +15°C° 0.1 mm 1 mps 749 mmHg 90%
    13:00 +15°C° 0.1 mm 1 mps 750 mmHg 89%
    14:00 +15°C° 0.1 mm 1 mps 750 mmHg 89%
    15:00 +15°C° 0.1 mm 1 mps 750 mmHg 90%
    16:00 +15°C° 0.1 mm 1 mps 750 mmHg 91%
    17:00 +14°C° 0 mm 1 mps 750 mmHg 92%
    18:00 +14°C° 0 mm 1 mps 750 mmHg 93%
    19:00 +13°C° 0 mm 1 mps 750 mmHg 94%
    20:00 +13°C° 0 mm 1 mps 750 mmHg 95%
    21:00 +13°C° 0 mm 1 mps 751 mmHg 95%
    22:00 +13°C° 0 mm 1 mps 751 mmHg 95%
    23:00 +12°C° 0 mm 1 mps 751 mmHg 95%

    27 September, Friday

    Time Temperature Precipitation Wind Pressure Humidity
    00:00 +12°C° 0 mm 1 mps 751 mmHg 95%
    01:00 +12°C° 0 mm 1 mps 751 mmHg 95%
    02:00 +12°C° 0 mm 1 mps 751 mmHg 95%
    03:00 +12°C° 0 mm 2 mps 751 mmHg 94%
    04:00 +12°C° 0 mm 2 mps 751 mmHg 94%
    05:00 +12°C° 0 mm 2 mps 751 mmHg 93%
    06:00 +12°C° 0 mm 2 mps 750 mmHg 93%
    07:00 +13°C° 0 mm 2 mps 750 mmHg 92%
    08:00 +13°C° 0 mm 3 mps 750 mmHg 87%
    09:00 +16°C° 0 mm 3 mps 750 mmHg 83%
    10:00 +17°C° 0 mm 4 mps 751 mmHg 78%
    11:00 +18°C° 0 mm 4 mps 750 mmHg 78%
    12:00 +18°C° 0 mm 4 mps 750 mmHg 78%
    13:00 +18°C° 0 mm 4 mps 750 mmHg 78%
    14:00 +18°C° 0 mm 4 mps 749 mmHg 77%
    15:00 +18°C° 0 mm 4 mps 749 mmHg 76%
    16:00 +18°C° 0 mm 4 mps 749 mmHg 76%
    17:00 +18°C° 0.1 mm 4 mps 749 mmHg 78%
    18:00 +17°C° 0.1 mm 4 mps 748 mmHg 81%
    19:00 +17°C° 0.1 mm 4 mps 748 mmHg 83%
    20:00 +15°C° 0 mm 4 mps 748 mmHg 84%
    21:00 +15°C° 0 mm 4 mps 748 mmHg 85%
    22:00 +15°C° 0 mm 4 mps 748 mmHg 86%
    23:00 +15°C° 0 mm 4 mps 748 mmHg 88%

    28 September, Saturday

    Time Temperature Precipitation Wind Pressure Humidity
    00:00 +14°C° 0 mm 4 mps 748 mmHg 90%
    01:00 +14°C° 0 mm 3 mps 748 mmHg 93%
    02:00 +14°C° 0.1 mm 3 mps 747 mmHg 93%
    03:00 +13°C° 0.1 mm 3 mps 747 mmHg 94%
    04:00 +13°C° 0.1 mm 3 mps 747 mmHg 94%
    05:00 +13°C° 0.2 mm 3 mps 747 mmHg 94%
    06:00 +13°C° 0.2 mm 3 mps 747 mmHg 94%
    07:00 +13°C° 0.2 mm 3 mps 747 mmHg 93%
    08:00 +14°C° 0.2 mm 4 mps 747 mmHg 87%
    09:00 +15°C° 0.2 mm 4 mps 747 mmHg 80%
    10:00 +17°C° 0.2 mm 4 mps 747 mmHg 74%
    11:00 +18°C° 0.2 mm 4 mps 747 mmHg 69%
    12:00 +17°C° 0.2 mm 5 mps 747 mmHg 65%
    13:00 +19°C° 0.2 mm 5 mps 747 mmHg 60%
    14:00 +17°C° 0.3 mm 5 mps 747 mmHg 61%
    15:00 +18°C° 0.3 mm 4 mps 746 mmHg 63%
    16:00 +18°C° 0.3 mm 4 mps 746 mmHg 64%
    17:00 +17°C° 0.2 mm 4 mps 746 mmHg 66%
    18:00 +15°C° 0.2 mm 4 mps 746 mmHg 69%
    19:00 +14°C° 0.2 mm 3 mps 746 mmHg 72%
    20:00 +14°C° 0.1 mm 4 mps 746 mmHg 74%
    21:00 +13°C° 0.1 mm 4 mps 746 mmHg 77%
    22:00 +13°C° 0.1 mm 4 mps 746 mmHg 80%
    23:00 +12°C° 0 mm 4 mps 745 mmHg 80%
    Show more